sat.trackr.live / text

‹ back to catalog

STARLINK-36537

NORAD 67516 · 2026-012Z

PAYLOAD ACTIVE UNKNOWN

§ Identity

Operator
Country
US
Launch date
2026-01-18
Launch site
AFETR
Launch vehicle
Mass (kg)
RCS (m²)

Purposes: comms

External: N2YO · Heavens-Above · Gunter

§ Orbital elements

Epoch: 2026-05-24T23:55:30.426816Z

Period
94.27 min
Inclination
43.0032°
Eccentricity
0.0001536
Mean motion
15.27585344 rev/d
Perigee alt
482.0 km
Apogee alt
484.1 km
Semi-major
6,861.2 km
B*
5.6355e-4
RAAN
243.3114°
Arg perigee
267.7436°
Mean anomaly
92.3240°
Rev number
1,943

§ Raw data

STARLINK-365371 67516U 26012Z   26144.99687994  .00015280  00000+0  56355-3 0  99962 67516  43.0032 243.3114 0001536 267.7436  92.3240 15.27585344 19438

JSON: /api/v1/satellites/67516 · /tle

For live sub-satellite position, see the globe view (requires WebGL).

§ Visibility from observer

Set your observer location to see the next 7 days of passes ≥ 10°. The values pass through the URL so the page stays shareable.

No JS? Fill the form by hand. The geolocation button needs JavaScript.